Regional Weather Roundup
Issued by NWS

Home | Current Version | Previous Version | Graphics & Text | Print | Product List | Glossary On
Versions: 1 2 3 4 5 6 7 8 9 10 11 12 13 14 15 16 17 18 19 20 21 22 23 24 25 26 27 28 29 30 31 32 33 34 35 36 37 38 39 40 41 42 43 44 45 46 47 48 49 50
000
ASUS43 KLSX 281459
RWRMO

WEATHER SUMMARY FOR MISSOURI
NATIONAL WEATHER SERVICE SPRINGFIELD MO
1000 AM CDT TUE MAR 28 2017

NOTE: "FAIR" INDICATES FEW OR NO CLOUDS BELOW 12,000 FEET WITH NO
       SIGNIFICANT WEATHER AND/OR OBSTRUCTIONS TO VISIBILITY.
       CURRENT SKY AND/OR WEATHER CONDITIONS ARE NOT AVAILABLE FOR
       CHILLICOTHE AND FARMINGTON.

MOZ001>031-035>038-043-044-053-054-281600-
...NORTHERN AND WESTERN MISSOURI...

CITY           SKY/WX    TMP DP  RH WIND       PRES   REMARKS
KANSAS CTY INT DRIZZLE   48  47  96 NE6       30.09R FOG
KANSAS C DTWN  CLOUDY    50  48  93 NE6       30.09R FOG
LEE`S SUMMIT   CLOUDY    49  48  97 NE6       30.09R
ST JOSEPH      CLOUDY    50  46  86 NE6       30.10R
CHILLICOTHE      N/A     49  46  90 NE7       30.10R
KIRKSVILLE     CLOUDY    49  47  93 NE8       30.09S FOG

$$
MOZ066>068-077>081-088>096-101>105-281600-
...SOUTHWEST MISSOURI...

CITY           SKY/WX    TMP DP  RH WIND       PRES   REMARKS
SPRINGFIELD    CLOUDY    54  50  86 E7        30.04R
JOPLIN         CLOUDY    51  49  92 E8        30.05S
BRANSON        CLOUDY    54  48  82 E5        30.05S

$$
MOZ032>034-039>042-045>050-055>058-069>072-281600-
...CENTRAL MISSOURI...

CITY           SKY/WX    TMP DP  RH WIND       PRES   REMARKS
COLUMBIA       CLOUDY    53  49  86 E7        30.08R
JEFFERSON CITY CLOUDY    54  48  80 SE7       30.09R
ROLLA          CLOUDY    50  49  96 E8        30.06R
SEDALIA        CLOUDY    52  50  93 E8        30.08R FOG
WHITEMAN AFB   FOG       50  50 100 NE6       30.06R VSB 3/4
WARRENSBURG    CLOUDY    50  46  87 NE6       30.07S FOG
OSAGE BEACH    CLOUDY   N/A N/A N/A E6        30.07S

$$
MOZ051-052-059>065-281600-
...EAST CENTRAL MISSOURI...

CITY           SKY/WX    TMP DP  RH WIND       PRES   REMARKS
ST LOUIS INTL  CLOUDY    55  49  80 NE7       30.08R
SPIRIT OF STL  CLOUDY    54  49  83 NE6       30.07S
ST CHARLES     CLOUDY    55  50  83 NE7       30.07R

$$
MOZ072>076-082>087-097>100-106>115-281600-
...SOUTH CENTRAL AND SOUTHEAST MISSOURI...

CITY           SKY/WX    TMP DP  RH WIND       PRES   REMARKS
CAPE GIRARDEAU CLOUDY    56  50  80 N9        30.06R
FARMINGTON     CLOUDY    51  49  92 N3        30.09R
POPLAR BLUFF   CLOUDY    58  51  78 NE6       30.07R
WEST PLAINS    CLOUDY    55  52  89 E6        30.06R

$$



USA.gov is the U.S. government's official web portal to all federal, state and local government web resources and services.